TITAN 3C TRANSTAGE DEB, 39298

Orbit data source: Space-Track

TITAN 3C TRANSTAGE DEB, 39298 is space debris in GEO originally from a launch on Thu, 26 Sep 1968 UTC launched from the Air Force Eastern Test Range (AFETR). Debris objects in space refer to the collection of defunct objects orbiting the Earth. Examples of debris include non-operational satellites, rocket bodies, and fragments generated from explosions, collisions, or faulty payload assembly.

Not visible in the next 10 days
Identifier
39298, 1968-081AJ
Orbit
GEO
Country
Flag of USUS
Related business
Manufacturer
Unknown
Mission
Spacecraft
Bus & Motor
Unknown
Mass
Unknown
Launch date (UTC)
1968-09-26 (57 years ago)
Launch vehicle
Unknown
Launch site
Air Force Eastern Test Range (AFETR)
Object type
Payload
Rocket body
Debris
Shape & HBR
Unknown
Radar Cross Section
RCS unknown

Expand to show TLE details & history
Last TLE update: 20 hours ago

TLE from 20 hours ago
0 TITAN 3C TRANSTAGE DEB
1 39298U 68081AJ  25242.23632782 -.00000243  00000-0  00000-0 0  9992
2 39298   1.4125   4.0633 0150133 336.1746  59.8349  1.00172007 63370
Epoch: 2025-08-30T05:40Z
TLE epoch observation values (Epoch: 2025-08-30T05:40:18.723Z)
Latitude
0.84346°
Longitude
-22.18419°
Altitude
35,501.847 km
Speed
3.097 km/s
True Right ascension
02h 46m 16s
True Declination
0° 50' 33"
Sunlit
Object was in daylight at epoch
Visualization orbit readout
Latitude
Unknown
Longitude
Unknown
Altitude
Unknown
Speed
Unknown
Apparent Right ascension
Unknown
Apparent Declination
Unknown
Sunlit
N/A
Visualization observer readout
Local Sidereal Time
17:18:41
Azimuth
Unknown
Elevation
Unknown
Doppler factor
Unknown
Orbital elements
Apogee altitude
36,449.127 km
Perigee altitude
35,182.191 km
Semi-major axis
42,193.796 km
Eccentricity
0.01501
Inclination
1.4125°
RAAN
4.0633°
Arg. of periapsis
336.1746°
True anomaly
61.33631°
Mean anomaly
59.8349°
Eccentric anomaly
60.5842°
Mean motion
0.25042 °/min
Orbital period
1,437.58 mins
BSTAR
0
Loading maneuver chart data...
Computing Atmospheric mass density...

Documentation

Showing up to 5 results
|